Location: Bruderhein
(53.8035°N, 112.9265°W)
Time: 16:39:35
(UTC+00:00)

Envisat - Visible Passes

Search period start: 03 December 2022 00:00
Search period end: 13 December 2022 00:00
Orbit: 763 x 765 km, 98.2° (Epoch: 03 December)

Date Brightness Start Highest point End Pass type
(mag) Time Alt. Az. Time Alt. Az. Time Alt. Az.
03 Dec 6.2 00:43:12 10° W 00:44:19 11° W 00:45:26 10° WNW visible
03 Dec 5.1 11:01:29 10° NNE 11:04:05 23° ENE 11:04:05 23° ENE visible
03 Dec 3.4 12:40:16 10° N 12:44:15 45° NNW 12:44:15 45° NNW visible
03 Dec 4.7 14:21:09 10° NNW 14:23:08 12° NW 14:24:25 11° WNW visible
04 Dec 5.7 00:02:57 10° SW 00:06:45 21° W 00:10:34 10° NW visible
04 Dec 5.8 10:25:25 10° NE 10:26:29 13° ENE 10:26:29 13° ENE visible
04 Dec 3.7 12:03:08 10° NNE 12:06:39 45° NNE 12:06:39 45° NNE visible
04 Dec 4.2 13:43:02 10° N 13:46:42 20° NW 13:46:50 20° NW visible
05 Dec 4.6 11:26:16 10° NNE 11:29:04 30° NE 11:29:04 30° NE visible
05 Dec 3.7 13:05:30 10° N 13:09:14 32° NW 13:09:14 32° NW visible
06 Dec 5.9 00:29:42 10° WSW 00:32:09 13° W 00:34:37 10° NW visible
06 Dec 5.4 10:49:43 10° NE 10:51:29 18° NE 10:51:29 18° NE visible
06 Dec 3.7 12:28:14 10° N 12:31:40 41° N 12:31:40 41° N visible
06 Dec 4.6 14:08:43 10° NNW 14:11:23 14° NW 14:11:50 14° NW visible
06 Dec 5.4 23:50:28 10° SSW 23:54:39 25° W 23:58:52 10° NW visible
07 Dec 4.2 11:51:12 10° NNE 11:54:06 34° NNE 11:54:06 34° NNE visible
07 Dec 4.1 13:30:52 10° N 13:34:16 23° NW 13:34:16 23° NW visible
08 Dec 5.0 11:14:23 10° NNE 11:16:31 23° NE 11:16:31 23° NE visible
08 Dec 3.8 12:53:26 10° N 12:56:42 33° NNW 12:56:42 33° NNW visible
08 Dec 4.9 14:35:39 10° NW 14:35:58 10° NW 14:36:18 10° NW visible
09 Dec 5.8 00:16:49 10° SW 00:20:01 17° W 00:23:13 10° NW visible
09 Dec 5.8 10:38:02 10° NE 10:38:58 13° NE 10:38:58 13° NE visible
09 Dec 4.0 12:16:15 10° NNE 12:19:09 35° N 12:19:09 35° N visible
09 Dec 4.5 13:56:25 10° NNW 13:59:19 17° NW 13:59:19 17° NW visible
10 Dec 4.7 11:39:16 10° NNE 11:41:35 27° NNE 11:41:35 27° NNE visible
10 Dec 4.1 13:18:45 10° N 13:21:46 25° NW 13:21:46 25° NW visible
11 Dec 6.3 00:44:54 10° W 00:45:28 10° W 00:46:03 10° WNW visible
11 Dec 5.4 11:02:34 10° NNE 11:04:03 17° NE 11:04:03 17° NE visible
11 Dec 4.0 12:41:24 10° N 12:44:13 31° N 12:44:13 31° N visible
11 Dec 4.7 14:22:23 10° NNW 14:24:13 12° NW 14:24:24 12° NW visible
12 Dec 5.7 00:04:10 10° SW 00:07:53 20° W 00:11:38 10° NW visible
12 Dec 6.0 10:26:26 10° NE 10:26:31 10° NE 10:26:31 10° NE visible
12 Dec 4.4 12:04:16 10° NNE 12:06:41 29° NNE 12:06:41 29° NNE visible
12 Dec 4.4 13:44:11 10° N 13:46:52 19° NW 13:46:52 19° NW visible
